FW7449 Weather Reports


time (UTC)temp
C
wind
direction
speed
KPH
gust
KPH
rain 1hr
cm
rain 24hr
cm
rain mn
cm
humidity
%
barometer
mb
20260505034539 19 202 4.8 11.3 0.00 0.00 0.00 44 1015.0
20260505033041 19 209 6.4 17.7 0.00 0.00 0.00 43 1015.1
20260505031538 19 252 6.4 16.1 0.00 0.00 0.00 43 1015.2
20260505030054 19 172 6.4 17.7 0.00 0.00 0.00 43 1015.2
20260505024539 19 174 4.8 16.1 0.00 0.00 0.00 44 1015.2
20260505023038 19 229 6.4 16.1 0.00 0.00 0.00 44 1015.2
20260505021540 19 234 4.8 12.9 0.00 0.00 0.00 44 1015.0
20260505020051 20 0 3.2 8.0 0.00 0.00 0.00 43 1015.1
20260505014540 20 200 3.2 14.5 0.00 0.00 0.00 42 1015.0
20260505013041 20 172 8.0 19.3 0.00 0.00 0.00 41 1014.6
20260505011536 20 181 9.7 22.5 0.00 0.00 0.00 40 1014.7
20260505004539 21 199 8.0 17.7 0.00 0.00 0.00 38 1014.4
20260505003047 21 200 4.8 17.7 0.00 0.00 0.00 38 1014.2
20260505001541 21 165 6.4 11.3 0.00 0.00 0.00 37 1014.1
20260505000043 21 182 3.2 14.5 0.00 0.00 0.00 37 1014.1
20260504234535 22 162 6.4 14.5 0.00 0.00 0.00 36 1014.0
20260504233049 22 165 9.7 22.5 0.00 0.00 0.00 36 1013.8
20260504231540 23 240 12.9 30.6 0.00 0.00 0.00 35 1013.9
20260504230055 23 165 8.0 19.3 0.00 0.00 0.00 36 1013.7
20260504224557 23 154 8.0 22.5 0.00 0.00 0.00 35 1013.8
20260504223042 23 180 11.3 19.3 0.00 0.00 0.00 35 1013.7
20260504221541 24 105 9.7 25.7 0.00 0.00 0.00 35 1013.7
20260504220051 24 153 8.0 25.7 0.00 0.00 0.00 33 1013.6
20260504214545 25 157 9.7 24.1 0.00 0.00 0.00 34 1013.7
20260504213045 25 217 9.7 24.1 0.00 0.00 0.00 32 1013.8
20260504211536 25 191 6.4 22.5 0.00 0.00 0.00 32 1013.7
20260504210056 25 165 9.7 20.9 0.00 0.00 0.00 32 1013.7
20260504204547 25 147 9.7 25.7 0.00 0.00 0.00 33 1013.9
20260504203044 25 148 8.0 22.5 0.00 0.00 0.00 32 1013.9
20260504201546 25 144 8.0 29.0 0.00 0.00 0.00 33 1014.2
20260504200049 25 136 12.9 25.7 0.00 0.00 0.00 33 1014.2
20260504194535 25 169 9.7 19.3 0.00 0.00 0.00 32 1014.4
20260504193044 26 182 4.8 17.7 0.00 0.00 0.00 33 1014.5
20260504191545 25 62 4.8 17.7 0.00 0.00 0.00 34 1014.6
20260504190041 26 173 1.6 12.9 0.00 0.00 0.00 32 1014.9
20260504184539 25 252 8.0 16.1 0.00 0.00 0.00 33 1015.1
20260504183041 26 153 6.4 16.1 0.00 0.00 0.00 31 1015.3
20260504181541 25 243 6.4 20.9 0.00 0.00 0.00 31 1015.6
20260504180040 25 204 3.2 14.5 0.00 0.00 0.00 32 1015.8
20260504174540 24 315 1.6 12.9 0.00 0.00 0.00 33 1015.8
20260504173041 25 157 6.4 14.5 0.00 0.00 0.00 33 1015.8
20260504171540 23 56 1.6 16.1 0.00 0.00 0.00 35 1015.9
20260504081539 7 0 0.0 0.0 0.00 0.00 0.00 82 1017.1
20260504044543 11 0 0.0 3.2 0.00 0.00 0.00 66 1017.1
20260504043107 12 196 0.0 4.8 0.00 0.00 0.00 64 1017.0
20260504041544 12 196 1.6 4.8 0.00 0.00 0.00 62 1016.8
20260504040048 12 0 0.0 0.0 0.00 0.00 0.00 61 1016.7